Location: downtown San Diego
(32.7310°N, 117.1990°W)
Time: 02:11:31
(UTC-08:00)

CZ-2C R/B - Pass Details

Date: 12 July 2018
Orbit: 703 x 909 km, 98.2° (Epoch: 17 November)

Event Time Altitude Azimuth Distance (km) Brightness Sun altitude
Exits shadow 22:29:25 42° 75° (ENE) 1,193 3.7 -25.4°
Maximum altitude 22:29:30 42° 73° (ENE) 1,192 3.8 -25.4°
Drops below altitude 10° 22:34:31 10° 4° (N) 2,415 6.2 -26.0°
Sets 22:36:54 0° 357° (N) 3,317 7.1 -26.3°
